[ ตารางข้อมูล ] [ Min-Max ] [ วันนี้2 ] [ วันนี้4 ] [ เทียบ-A 3วัน ] [ เทียบ-B 4วัน ]   

วันนี้4   [ ◀ ช่วงเก่ากว่า ] [ ช่วงที่ 14 ] [ ช่วงใหม่กว่า ▶ ] [ ล่าสุด ]    [ 3 ชั่วโมง ] [ 6 ชั่วโมง ] [ 12 ชั่วโมง ] [ 24 ชั่วโมง ]   วันนี้4

อุณภูมิในตู้ Knockdown4529  ราย 24 ชั่วโมง  ที่วัดได้ ในช่วงวันเวลา 17/08/2026 (16:58) ถึง 18/08/2026 (16:58) 
ความชื้นในตู้ Knockdown4529  ราย 24 ชั่วโมง  ที่วัดได้ ในช่วงวันเวลา 17/08/2026 (16:58) ถึง 18/08/2026 (16:58) 
การใช้ไฟฟ้าในตู้ Knockdown4529  ราย 24 ชั่วโมง  ที่วัดได้ ในช่วงวันเวลา 17/08/2026 (16:58) ถึง 18/08/2026 (16:58) 

  DS18B20SHTC3PZEM-004TWiFi 
IDDate d/m/Y & Timedata1
สูง
data2
ต่ำ
data3
นอก
temp
pcb
hum
pcb
VoltAmpWattrssiTime
 13795  18/08/2026 16:58:04  32.2  32.1  28.0  33.1  65.1  232.9  0.04  4.5  -76  16:58 
 13794  18/08/2026 16:53:21  32.2  32.1  27.7  33.2  65.1  232.8  0.04  4.5  -76  16:53 
 13793  18/08/2026 16:48:38  32.2  32.2  27.9  33.3  65.0  234.2  0.04  4.6  -78  16:48 
 13792  18/08/2026 16:43:55  32.3  32.2  28.0  33.3  64.9  235.3  0.04  4.6  -77  16:43 
 13791  18/08/2026 16:39:11  32.4  32.3  28.4  33.5  64.7  235.2  0.04  4.6  -76  16:39 
 13790  18/08/2026 16:34:28  32.5  32.4  28.0  33.6  64.6  235.1  0.04  4.6  -77  16:34 
 13789  18/08/2026 16:29:45  32.6  32.4  28.4  33.5  64.5  235.0  0.04  4.5  -77  16:29 
 13788  18/08/2026 16:25:02  32.8  32.5  28.9  33.6  64.2  234.7  0.04  4.5  -77  16:25 
 13787  18/08/2026 16:20:18  32.9  32.5  28.6  33.7  64.0  234.7  0.04  4.5  -76  16:20 
 13786  18/08/2026 16:15:34  33.0  32.6  28.7  34.0  64.0  234.4  0.04  4.5  -77  16:15 
 13785  18/08/2026 16:10:51  33.1  32.6  28.6  34.0  63.9  234.3  0.04  4.6  -77  16:10 
 13784  18/08/2026 16:06:07  33.2  32.6  28.5  34.2  63.9  234.6  0.04  4.5  -77  16:06 
 13783  18/08/2026 16:01:24  33.3  32.7  29.1  34.4  63.9  234.4  0.04  4.6  -77  16:01 
 13782  18/08/2026 15:56:40  33.5  32.7  28.9  34.2  63.3  234.5  0.04  4.6  -76  15:56 
 13781  18/08/2026 15:51:57  33.6  32.7  29.5  34.4  63.3  234.0  0.04  4.6  -76  15:51 
 13780  18/08/2026 15:47:13  33.6  32.7  31.9  34.6  63.1  233.5  0.04  4.6  -76  15:47 
 13779  18/08/2026 15:42:30  33.7  32.7  32.5  34.5  63.0  233.4  0.04  4.6  -77  15:42 
 13778  18/08/2026 15:37:46  33.7  32.7  33.2  34.6  63.0  233.8  0.04  4.6  -77  15:37 
 13777  18/08/2026 15:33:03  33.8  32.7  33.1  34.4  62.9  234.6  0.04  4.5  -76  15:33 
 13776  18/08/2026 15:28:20  33.8  32.7  33.0  34.6  63.0  234.1  0.04  4.5  -76  15:28 
 13775  18/08/2026 15:23:37  33.8  32.7  32.9  34.6  62.9  233.7  0.04  4.6  -76  15:23 
 13774  18/08/2026 15:18:54  33.9  32.7  32.7  34.8  62.8  234.5  0.04  4.6  -76  15:18 
 13773  18/08/2026 15:14:11  33.9  32.7  32.7  34.7  62.8  234.3  0.04  4.6  -77  15:14 
 13772  18/08/2026 15:09:27  34.0  32.7  32.7  34.8  62.7  234.4  0.04  4.6  -77  15:09 

Data every 5 minute.


ใช้เวลาประมวลผล 0.02329 วินาที